WESTFORD NEEDLES, 2431

Orbit data source: Space-Track

WESTFORD NEEDLES, 2431 is space debris in LEO originally from a launch on Thu, 09 May 1963 UTC launched from the Air Force Western Test Range (AFWTR). Debris objects in space refer to the collection of defunct objects orbiting the Earth. Examples of debris include non-operational satellites, rocket bodies, and fragments generated from explosions, collisions, or faulty payload assembly.

Loading next visibility...
Identifier
2431, 1963-014AC
Orbit
LEO
Last TLE update
3 days ago
Origin
Manufacturer
Unknown
Mission
Spacecraft
Bus & Motor
Unknown
Mass
Unknown
Launch date (UTC)
1963-05-09 (62 years ago)
Launch vehicle
Unknown
Launch site
Air Force Western Test Range (AFWTR)
Object type
Payload
Rocket body
Debris
Shape & HBR
Unknown
Radar Cross Section
Medium (>0.1 m² and <1 m²)

Expand to show TLE details & history

TLE from 3 days ago
0 WESTFORD NEEDLES
1 02431U 63014AC  25123.25484534 -.00000677  00000-0 -28419+0 0  9997
2 02431  87.4948 229.1662 0401696  23.0764 338.7599  8.68622052334113
Epoch: 2025-05-03T06:06Z
Definitive object data (Epoch: 2025-05-03T06:06:58.637Z)
Latitude
-0.00008°
Longitude
-83.97786°
Altitude
3,248.478 km
Speed
6.554 km/s
True Right ascension
15h 16m 39s
True Declination
0° 00' 00"
Sunlit
Object was in full shadow at TLE epoch
Visualization TLE readout
Latitude
-41.59077°
Longitude
97.98244°
Altitude
4,005.968 km
Speed
6.08 km/s
Apparent Right ascension
01h 27m 51s
Apparent Declination
-47° 52' 40"
Sunlit
Object is in daylight
Visualization observer readout
Local Sidereal Time
10:05:16
Azimuth
240.286° WSW
Elevation
-53.335°
Doppler factor
1
Orbital elements
Apogee altitude
4,017.641 km
Perigee altitude
3,214.706 km
Semi-major axis
9,994.31 km
Eccentricity
0.0401696
Inclination
87.4948°
RAAN
229.1662°
Arg. of periapsis
23.0764°
True anomaly
337.01087°
Mean anomaly
338.7599°
Eccentric anomaly
337.89377°
Mean motion
2.17227 °/min
BSTAR
-0.28419
Orbital period
165.73 mins
Loading maneuver chart data...
Loading SW <> Apogee altitude chart data...

WESTFORD NEEDLES Visibility forecast

Observer location: undefined°, undefined°

Span
Click to sort rows by Start time (UTC) header in descending order
Start Az.
Max El. time (UTC)
Max El. Az.
Max El.
End time (UTC)
End Az.
31 mins2025-05-06 06:00:58.115Z147.478° SSE2025-05-06 06:15:58.115Z79.975° E38.519°2025-05-06 06:31:58.115Z7.67° NNE
29 mins2025-05-06 08:48:58.115Z220.196° SW2025-05-06 09:01:58.115Z282.188° WNW34.247°2025-05-06 09:17:58.115Z354.138° N
7 mins2025-05-06 15:06:58.115Z35.669° NE2025-05-06 15:09:58.115Z45.526° ENE10.838°2025-05-06 15:13:58.115Z58.392° ENE
37 mins2025-05-06 17:45:58.115Z3.625° NNE2025-05-06 18:03:58.115Z86.212° E40.507°2025-05-06 18:22:58.115Z159.411° S
33 mins2025-05-06 20:32:58.115Z348.569° N2025-05-06 20:47:58.115Z288.933° WNW34.763°2025-05-06 21:05:58.115Z224.16° SW
|